Location: Le Mousteiret
(44.1573°N, 6.2931°E)
Time: 12:17:42
(UTC+00:00)

Daily predictions for brighter satellites

Satellite Brightness Start Highest point End
(mag) Time Altitude Azimuth Time Altitude Azimuth Time Altitude Azimuth
Cosmos 2278 3.8 18:32:23 10° SSW 18:38:02 87° WNW 18:43:45 10° NNE
Helios 1A Rocket 3.8 18:38:00 10° NE 18:40:19 18° E 18:42:36 10° SE
Cosmos 1844 Rocket 3.0 18:35:45 10° NNW 18:41:19 74° WSW 18:46:51 10° SSE
Cosmos 2360 Rocket 2.2 18:37:09 10° SSW 18:42:41 66° ESE 18:48:18 10° NNE
Cosmos 2228 Rocket 3.5 18:39:29 10° N 18:43:48 43° ENE 18:48:01 10° SSE
Aureole 2 4.4 18:44:16 10° NNW 18:47:47 63° ENE 18:51:09 10° SSE
COSMO-SKYMED 1 4.0 18:44:10 10° N 18:48:02 41° WNW 18:51:53 10° SW
BlueWalker 3 2.7 18:45:22 10° WNW 18:48:48 43° SW 18:52:13 10° SSE
Cosmos 2184 Rocket 4.2 18:44:24 10° SSE 18:50:35 56° E 18:56:48 10° NNE
Cosmos 2322 Rocket 2.2 18:45:01 10° SSW 18:50:37 83° ESE 18:56:15 10° NNE
SL-19 R/B 4.4 18:46:21 10° S 18:51:32 76° WSW 18:56:55 10° NNW
Cosmos 1666 Rocket 3.4 18:48:47 10° S 18:53:03 77° E 18:57:21 10° NNE
Cosmos 1633 Rocket 3.0 18:49:47 10° S 18:54:07 65° E 18:58:27 10° NNE
Cosmos 1340 Rocket 2.5 18:51:09 10° S 18:54:48 84° E 18:58:28 10° NNE
BREEZE-M DEB (TANK) 1.6 18:56:16 10° WSW 18:58:34 73° SSE 19:01:14 10° ENE
SL-16 R/B 3.3 18:53:08 10° SW 18:58:37 50° WNW 19:04:09 10° NNE
Terra 3.0 18:55:47 10° ESE 18:59:32 25° ENE 19:03:18 10° NNE
Atlas Centaur 2 4.3 18:58:01 10° SW 19:01:27 16° SSW 19:05:17 10° SSE
CSL-04 Debris 4.3 18:56:48 10° SSE 19:02:00 56° ENE 19:07:15 10° N
Meteor 1-22 Rocket 4.4 18:57:30 10° S 19:03:05 85° W 19:08:57 10° N
Cosmos 1898 Rocket 3.5 18:58:38 10° S 19:03:48 64° ESE 19:08:58 10° NNE
CZ-4 R/B 1.7 19:00:43 10° SE 19:04:18 41° ENE 19:07:52 10° N
Resurs 01 Rocket 3.2 19:02:12 10° SSW 19:06:15 37° W 19:10:20 10° NNW
Okean O Rocket 3.4 19:06:43 12° E 19:08:47 15° ENE 19:11:19 10° NNE
SL-08 R/B 4.5 19:07:01 10° NE 19:10:57 24° E 19:14:52 10° SSE
Cosmos 2333 4.2 19:07:43 10° SSW 19:13:19 88° WNW 19:18:57 10° NNE
Cosmos 372 Rocket 4.2 19:09:27 10° SSW 19:14:40 77° WNW 19:19:55 10° NNE
Meteor 1-24 Rocket 3.7 19:09:47 10° N 19:15:16 88° W 19:20:55 10° S
Tiangong 0.1 19:13:20 10° WSW 19:15:28 17° SSW 19:17:36 10° SSE
Cosmos 1538 Rocket 4.0 19:10:26 10° NNW 19:15:36 85° WSW 19:20:45 10° SSE
CENTAUR R/B 4.3 19:09:47 10° NW 19:17:55 47° WSW 19:26:50 10° S
Cosmos 1680 Rocket 4.3 19:14:18 10° N 19:19:03 35° ENE 19:22:22 17° ESE
Cosmos 2219 Rocket 2.1 19:13:35 10° SSW 19:19:09 79° ESE 19:24:46 10° NNE
SPOT 5 2.8 19:14:47 10° SSE 19:19:37 87° W 19:24:13 10° NNW
CZ-4B R/B 3.5 19:18:26 10° SSE 19:21:59 85° ENE 19:25:41 10° NNW
Cosmos 2074 Rocket 4.1 19:16:04 10° S 19:22:17 83° W 19:28:35 10° N
Meteor 1-31 Rocket 2.4 19:21:08 10° SSE 19:24:38 88° ENE 19:28:11 10° NNW
Cosmos 1937 Rocket 3.4 19:20:05 10° SSW 19:25:20 73° ESE 19:30:38 10° NNE
Cosmos 1339 Rocket 4.5 19:25:08 10° N 19:31:26 70° E 19:37:35 10° SSE
SL-24 R/B - RUBIN 2 4.4 19:28:51 10° NNW 19:32:58 37° NE 19:35:17 22° E
SL-8 Rocket 4.5 19:29:04 10° SSE 19:34:38 38° E 19:40:22 10° NNE
Cosmos 923 Rocket 4.1 19:29:54 10° NNW 19:35:11 64° ENE 19:38:50 20° SE
USA 234 3.9 19:29:08 10° NE 19:35:32 59° NNW 19:41:57 10° WSW
COSMOS 2428 3.2 19:31:22 10° S 19:36:32 36° ESE 19:41:43 10° NE
Cosmos 1953 4.1 19:35:41 10° SW 19:38:53 31° WNW 19:42:08 10° NNW
PAYLOAD B 4.2 19:33:50 12° SSE 19:38:54 75° ENE 19:44:24 10° N
CZ-4B R/B 3.3 19:35:07 16° SSE 19:39:26 62° ENE 19:44:58 10° N
MetOp-B 4.2 19:35:41 17° SSE 19:39:50 62° ENE 19:45:09 10° N
CZ-4B DEB 4.1 19:34:36 10° SSE 19:40:02 87° ENE 19:45:33 10° NNW
CSL-04 Rocket 4.1 19:34:56 10° S 19:40:23 64° WSW 19:45:56 10° NNW
Cosmos 2366 rocket 4.4 19:40:01 16° SSE 19:44:36 41° E 19:50:19 10° NNE
Cosmos 2278 Rocket 3.4 19:40:45 10° N 19:45:29 26° NE 19:47:49 20° E
SKYMED 3 4.2 19:43:24 10° NNE 19:47:14 59° E 19:50:05 17° S
Cosmos 2327 Rocket 4.4 19:41:50 10° S 19:47:53 65° E 19:54:05 10° NNE
Cosmos 2333 Rocket 4.4 19:43:26 10° WSW 19:48:13 27° NW 19:53:01 10° N
NOSS 3-2 (C) 4.1 19:43:13 10° NW 19:50:36 75° NE 19:56:23 24° SE
Cosmos 1703 Rocket 3.7 19:51:03 10° NNW 19:55:22 69° W 19:58:41 16° S
Geosat 4.3 19:50:52 10° NNE 19:55:51 69° WNW 20:00:49 10° SW
Spot 2 Rocket 3.8 19:53:55 31° ESE 19:55:53 46° ENE 20:00:40 10° N
BREEZE-M DEB (TANK) 3.3 19:54:25 10° WNW 19:56:51 36° N 19:59:33 18° ENE
Lacrosse 5 rocket 0.9 19:55:15 10° SW 19:58:26 67° NW 20:00:40 18° NE
ARIANE 6 FM1 Upper Stage 4.5 19:56:01 10° WSW 19:59:45 32° NW 20:03:25 10° NNE
NOSS 2-3 (D) 4.4 19:55:43 10° NNW 20:00:49 65° NE 20:03:53 31° ESE
ERS-1 Rocket 3.0 19:57:46 18° S 20:01:29 78° WSW 20:06:30 10° NNW
Cosmos 1933 Rocket 3.6 19:59:20 10° SSW 20:03:40 79° W 20:08:05 10° N
Cosmos 2218 Rocket 4.0 20:06:05 23° SSE 20:09:55 60° E 20:15:57 10° NNE
Cosmos 1943 Rocket 2.6 20:05:52 10° NNW 20:11:20 46° ENE 20:12:58 37° ESE
YAOGAN 11 3.9 20:08:49 10° NNE 20:13:02 64° ESE 20:13:56 50° SSE
Meteor 2-15 4.5 20:11:09 30° SSE 20:14:02 56° E 20:19:58 10° NNE
In-Cosmos 22 Rocket 4.0 20:11:20 10° N 20:16:43 89° E 20:19:02 35° S
MOS 1-B 4.3 20:14:21 36° SSE 20:16:47 72° ENE 20:22:33 10° N
USA 59 Rocket 2.1 20:16:20 10° NNE 20:17:12 11° NE 20:17:17 11° NE
Cosmos 1733 Rocket 3.8 20:18:20 35° ENE 20:18:20 35° ENE 20:21:33 10° NNE
Cosmos 192 4.4 20:18:37 50° ESE 20:18:43 50° ESE 20:23:27 10° NNE
Cosmos 1959 Rocket 4.5 20:15:53 25° S 20:19:44 68° E 20:26:02 10° NNE
NOSS 3-4 (A) 4.5 20:23:14 23° ENE 20:23:14 23° ENE 20:25:38 10° NE
CZ-4B R/B 4.1 20:20:21 36° ENE 20:20:40 36° ENE 20:25:04 10° N
SeaSat 1 4.4 20:19:54 15° ENE 20:20:59 16° NE 20:23:50 10° N
Okean-O 2.5 20:20:35 59° SE 20:21:18 75° ENE 20:25:41 10° N
Cosmos 1821 Rocket 4.1 20:22:24 39° SE 20:24:24 56° E 20:30:32 10° NNE
Cosmos 494 Rocket 3.9 20:19:43 10° NNW 20:24:54 84° WSW 20:26:29 46° SSE
Cosmos 1048 Rocket 4.1 20:24:19 10° NNW 20:29:20 53° ENE 20:29:52 50° E
Cosmos 1869 Rocket 4.2 20:30:47 19° SSW 20:33:41 52° WNW 20:38:01 10° N
Timation 2 Rocket 4.3 20:28:39 10° NNW 20:34:49 54° ENE 20:36:19 45° ESE
ADEOS 4.4 20:32:47 22° SSW 20:35:52 45° W 20:40:52 10° NNW
Terra 3.0 20:34:16 21° SSW 20:36:51 38° W 20:41:15 10° NNW
CZ-4 R/B 4.0 20:36:17 10° SW 20:38:30 15° W 20:40:43 10° NW
Aureole 3 3.9 20:36:20 10° N 20:40:03 55° NE 20:40:03 55° NE
Meteor 2-21 4.3 20:35:23 10° N 20:41:31 72° E 20:42:49 55° SE
Okean O Rocket 1.9 20:43:57 54° SW 20:44:29 59° WSW 20:48:48 10° NNW
Cosmos 2237 Rocket 2.5 20:47:31 50° ENE 20:47:31 50° ENE 20:52:12 10° NNE
Cosmos 2242 Rocket 3.7 20:42:15 10° N 20:46:21 70° NNE 20:46:21 70° NNE
Cosmos 1980 3.7 20:47:57 59° E 20:47:57 59° E 20:53:01 10° NNE
CZ-4B R/B 3.9 20:51:35 37° N 20:51:35 37° N 20:53:50 10° N
Cosmos 2322 4.4 20:45:10 10° SW 20:50:44 54° WNW 20:56:22 10° NNE
ASTEX 1 3.2 20:50:47 84° E 20:50:47 84° E 20:55:42 10° N
Cosmos 1025 Rocket 4.5 20:47:01 10° N 20:49:24 27° NNE 20:49:24 27° NNE
SPOT 3 Rocket 3.4 21:02:10 89° SSW 21:02:12 89° W 21:07:26 10° NNW
Meteor 2-21 Rocket 4.3 21:08:24 10° N 21:14:33 89° E 21:14:50 82° SSE
COSMOS 2428 4.1 21:15:26 10° WSW 21:20:43 37° NW 21:26:02 10° NNE
Cosmos 2369 Rocket 3.8 21:16:43 10° N 21:20:57 22° NE 21:20:57 22° NE
NOSS 0 Rocket 4.5 21:17:27 10° SW 21:23:34 56° WNW 21:29:42 10° NNE
Ariane Rocket 3.4 21:26:52 60° NW 21:26:52 60° NW 21:31:11 10° NNW
Cosmos 1727 Rocket 4.1 21:21:40 10° NNW 21:27:59 69° W 21:28:33 65° SW
Cosmos 2278 Rocket 2.6 21:24:21 10° NNW 21:29:39 54° W 21:29:39 54° W
USA 238 DEB 3.8 21:23:51 10° NW 21:31:22 89° SW 21:32:16 73° SSE
USA 238 3.8 21:24:01 10° NW 21:31:32 90° W 21:32:26 73° SE
Lacrosse 5 rocket 4.2 21:33:50 10° NW 21:34:04 11° NW 21:34:04 11° NW
Cosmos 1656 Rocket 4.4 21:46:18 10° NNW 21:50:17 48° N 21:50:17 48° N
SL-16 R/B 3.9 21:58:05 23° NE 21:58:05 23° NE 22:00:11 10° NNE
Cosmos 1943 Rocket 3.7 21:50:03 10° NW 21:54:29 28° W 21:54:29 28° W
SeaSat 1 3.6 21:59:30 39° NNW 21:59:30 39° NNW 22:02:35 10° NNW
Cosmos 1934 Rocket 4.3 22:03:44 65° NW 22:03:44 65° NW 22:09:16 10° N
Cosmos 2123 Rocket 4.3 21:58:21 10° NNW 22:03:50 61° WNW 22:03:50 61° WNW
USA 59 Rocket 2.8 22:02:32 10° NW 22:02:49 12° NW 22:02:49 12° NW
NOSS 3-4 (A) 4.3 22:10:28 37° WNW 22:11:16 39° NW 22:16:45 10° NNE
NOSS 3-4 (C) 4.3 22:11:02 38° WNW 22:11:46 40° NW 22:17:17 10° NNE
NOSS 3-1 (C) 4.5 22:21:33 10° NNW 22:28:19 50° NE 22:28:44 50° NE
Cosmos 2237 Rocket 4.0 22:29:12 22° W 22:31:01 26° NW 22:35:46 10° N
COSMOS 2455 4.5 22:40:25 10° NNW 22:45:16 26° NE 22:45:16 26° NE
Cosmos 2369 Rocket 3.8 23:00:00 10° NNW 23:02:43 29° NW 23:02:43 29° NW
SJ 16-02 4.3 23:32:41 10° N 23:33:16 13° N 23:33:16 13° N
SL-16 R/B 4.0 23:39:53 25° NW 23:39:53 25° NW 23:43:49 10° N
CZ-2C R/B 4.2 23:44:18 33° N 23:44:18 33° N 23:47:19 10° N
ACS3 Solar Sail 3.7 23:37:40 10° NE 23:40:25 19° ENE 23:40:25 19° ENE
